{"data":{"norad_id":28220,"intl_designator":"2004-012A","name":"SHIYAN-1 (SY-1)","alt_names":[],"object_type":"PAYLOAD","status":"ACTIVE","operator":null,"country":"PRC","launch_date":"2004-04-18","launch_site_code":"XICLF","launch_vehicle":null,"mission":null,"orbit_class":"UNKNOWN","rcs_meters":1.5466,"size_class":null,"mass_kg":null,"dimensions":null,"purposes":["earth_obs"],"wikipedia_slug":null,"has_3d_model":false,"image_url":null,"decayed_at":null,"tle_current":{"epoch":"2026-05-25T03:34:13.587168Z","epoch_age_seconds":56177,"freshness":"FRESH","line1":"1 28220U 04012A   26145.14876837  .00012768  00000+0  40182-3 0  9994","line2":"2 28220  97.8692 221.7324 0007125 103.2211 256.9825 15.33070199207568","mean_motion":15.33070199,"eccentricity":0.0007125,"inclination_deg":97.8692,"raan_deg":221.7324,"arg_perigee_deg":103.2211,"mean_anomaly_deg":256.9825,"bstar":0.00040182,"rev_number":20756,"period_min":93.929162600597,"perigee_km":461.78162891627,"apogee_km":471.53546256896,"semimajor_km":6844.7955457426,"source":"CELESTRAK","updated_at":"2026-05-25T13:38:12.742302Z"}}}